Time,TemperatureF,DewpointF,PressureIn,WindDirection,WindDirectionDegrees,WindSpeedMPH,WindSpeedGustMPH,Humidity,HourlyPrecipIn,Conditions,Clouds,dailyrainin,SoftwareType,DateUTC
2013-03-10 00:00:00,43.7,5.3,30.02,SE,141,0.0,0.0,20,0.00,,FEW120,0.00,VWS V14.01,2013-03-10 05:00:00,
2013-03-10 00:01:00,43.5,5.1,30.02,SE,141,0.0,0.0,20,0.00,,CLR,0.00,VWS V14.01,2013-03-10 05:01:00,
2013-03-10 00:06:00,43.3,5.0,30.02,SE,141,0.0,0.0,20,0.00,,CLR,0.00,VWS V14.01,2013-03-10 05:06:00,
2013-03-10 00:11:00,43.3,5.0,30.02,SE,141,0.0,0.0,20,0.00,,CLR,0.00,VWS V14.01,2013-03-10 05:11:00,
2013-03-10 00:16:00,43.2,4.8,30.02,SE,141,0.0,0.0,20,0.00,,CLR,0.00,VWS V14.01,2013-03-10 05:16:00,
2013-03-10 00:21:00,43.2,4.8,30.02,SE,141,0.0,0.0,20,0.00,,CLR,0.00,VWS V14.01,2013-03-10 05:21:00,
2013-03-10 00:26:00,42.6,5.4,30.02,SE,141,0.0,0.0,21,0.00,,CLR,0.00,VWS V14.01,2013-03-10 05:26:00,
2013-03-10 00:31:00,42.6,5.4,30.02,SE,141,0.0,0.0,21,0.00,,CLR,0.00,VWS V14.01,2013-03-10 05:31:00,
2013-03-10 00:36:00,42.4,5.3,30.02,SE,141,0.0,0.0,21,0.00,,CLR,0.00,VWS V14.01,2013-03-10 05:36:00,
2013-03-10 00:42:00,42.8,4.5,30.02,SE,141,0.0,0.0,20,0.00,,CLR,0.00,VWS V14.01,2013-03-10 05:42:00,
2013-03-10 00:47:00,42.8,4.5,30.02,SE,141,0.0,0.0,20,0.00,,CLR,0.00,VWS V14.01,2013-03-10 05:47:00,
2013-03-10 00:52:00,42.8,4.5,30.02,SE,141,0.0,0.0,20,0.00,,CLR,0.00,VWS V14.01,2013-03-10 05:52:00,
2013-03-10 00:57:00,42.8,4.5,30.02,SE,141,0.0,0.0,20,0.00,,CLR,0.00,VWS V14.01,2013-03-10 05:57:00,
2013-03-10 01:02:00,42.6,5.4,30.02,SE,141,0.0,0.0,21,0.00,,CLR,0.00,VWS V14.01,2013-03-10 06:02:00,
2013-03-10 01:07:00,42.4,5.3,30.02,SE,141,0.0,0.0,21,0.00,,CLR,0.00,VWS V14.01,2013-03-10 06:07:00,
2013-03-10 01:12:00,42.3,5.1,30.02,SE,141,0.0,0.0,21,0.00,,CLR,0.00,VWS V14.01,2013-03-10 06:12:00,
2013-03-10 01:17:00,42.3,5.1,30.02,SE,141,0.0,0.0,21,0.00,,CLR,0.00,VWS V14.01,2013-03-10 06:17:00,
2013-03-10 01:22:00,42.3,5.1,30.02,SE,141,0.0,0.0,21,0.00,,CLR,0.00,VWS V14.01,2013-03-10 06:22:00,
2013-03-10 01:27:00,42.1,5.0,30.02,SE,141,0.0,0.0,21,0.00,,CLR,0.00,VWS V14.01,2013-03-10 06:27:00,
2013-03-10 01:32:00,41.7,4.7,30.02,SE,141,0.0,0.0,21,0.00,,CLR,0.00,VWS V14.01,2013-03-10 06:32:00,
2013-03-10 01:38:00,41.7,4.7,30.02,SE,141,0.0,0.0,21,0.00,,CLR,0.00,VWS V14.01,2013-03-10 06:38:00,
2013-03-10 01:43:00,41.7,4.7,30.02,SE,141,0.0,0.0,21,0.00,,CLR,0.00,VWS V14.01,2013-03-10 06:43:00,
2013-03-10 01:48:00,41.9,4.8,30.02,SE,141,0.0,0.0,21,0.00,,CLR,0.00,VWS V14.01,2013-03-10 06:48:00,
2013-03-10 01:53:00,41.7,4.7,30.02,SE,141,0.0,0.0,21,0.00,,CLR,0.00,VWS V14.01,2013-03-10 06:53:00,
2013-03-10 01:58:00,42.1,5.0,30.02,SE,141,0.0,0.0,21,0.00,,CLR,0.00,VWS V14.01,2013-03-10 06:58:00,
2013-03-10 03:03:00,42.3,5.1,29.99,SE,141,0.0,0.0,21,0.00,,CLR,0.00,VWS V14.01,2013-03-10 07:03:00,
2013-03-10 03:08:00,42.3,5.1,29.99,SE,141,0.0,0.0,21,0.00,,CLR,0.00,VWS V14.01,2013-03-10 07:08:00,
2013-03-10 03:13:00,42.4,5.3,29.99,SE,141,0.0,0.0,21,0.00,,CLR,0.00,VWS V14.01,2013-03-10 07:13:00,
2013-03-10 03:18:00,42.6,5.4,29.99,SE,141,0.0,0.0,21,0.00,,CLR,0.00,VWS V14.01,2013-03-10 07:18:00,
2013-03-10 03:23:00,42.8,4.5,29.99,SE,141,0.0,0.0,20,0.00,,CLR,0.00,VWS V14.01,2013-03-10 07:23:00,
2013-03-10 03:28:00,42.8,4.5,29.99,SE,141,0.0,0.0,20,0.00,,CLR,0.00,VWS V14.01,2013-03-10 07:28:00,
2013-03-10 03:33:00,42.6,5.4,29.99,SE,141,0.0,0.0,21,0.00,,CLR,0.00,VWS V14.01,2013-03-10 07:33:00,
2013-03-10 03:38:00,42.4,5.3,29.99,SE,141,0.0,0.0,21,0.00,,CLR,0.00,VWS V14.01,2013-03-10 07:38:00,
2013-03-10 03:43:00,42.3,5.1,29.99,SE,141,0.0,0.0,21,0.00,,CLR,0.00,VWS V14.01,2013-03-10 07:43:00,
2013-03-10 03:48:00,42.3,5.1,29.99,SE,141,0.0,0.0,21,0.00,,CLR,0.00,VWS V14.01,2013-03-10 07:48:00,
2013-03-10 03:53:00,42.1,5.0,29.99,SE,141,0.0,0.0,21,0.00,,CLR,0.00,VWS V14.01,2013-03-10 07:53:00,
2013-03-10 03:59:00,42.1,5.0,29.99,SE,141,0.0,0.0,21,0.00,,CLR,0.00,VWS V14.01,2013-03-10 07:59:00,
2013-03-10 04:04:00,42.1,5.0,29.99,SE,141,0.0,0.0,21,0.00,,CLR,0.00,VWS V14.01,2013-03-10 08:04:00,
2013-03-10 04:09:00,42.3,5.1,29.99,SE,141,0.0,0.0,21,0.00,,CLR,0.00,VWS V14.01,2013-03-10 08:09:00,
2013-03-10 04:14:00,42.6,5.4,29.99,SE,141,0.0,0.0,21,0.00,,CLR,0.00,VWS V14.01,2013-03-10 08:14:00,
2013-03-10 04:19:00,42.8,4.5,29.99,SE,141,0.0,0.0,20,0.00,,CLR,0.00,VWS V14.01,2013-03-10 08:19:00,
2013-03-10 04:24:00,43.2,4.8,29.99,SE,141,0.0,0.0,20,0.00,,CLR,0.00,VWS V14.01,2013-03-10 08:24:00,
2013-03-10 04:29:00,43.3,5.0,29.99,SE,141,0.0,0.0,20,0.00,,CLR,0.00,VWS V14.01,2013-03-10 08:29:00,
2013-03-10 04:34:00,43.5,5.1,29.99,SE,141,0.0,0.0,20,0.00,,CLR,0.00,VWS V14.01,2013-03-10 08:34:00,
2013-03-10 04:39:00,43.5,5.1,29.99,SE,141,0.0,0.0,20,0.00,,CLR,0.00,VWS V14.01,2013-03-10 08:39:00,
2013-03-10 04:44:00,43.5,5.1,29.99,SE,141,0.0,0.0,20,0.00,,CLR,0.00,VWS V14.01,2013-03-10 08:44:00,
2013-03-10 04:49:00,43.7,5.3,29.99,SE,141,0.0,0.0,20,0.00,,CLR,0.00,VWS V14.01,2013-03-10 08:49:00,
2013-03-10 04:54:00,43.5,5.1,29.99,SE,141,0.0,0.0,20,0.00,,CLR,0.00,VWS V14.01,2013-03-10 08:54:00,
2013-03-10 04:59:00,43.5,5.1,29.99,SE,141,0.0,0.0,20,0.00,,CLR,0.00,VWS V14.01,2013-03-10 08:59:00,
2013-03-10 05:04:00,43.3,5.0,29.99,SE,141,0.0,0.0,20,0.00,,CLR,0.00,VWS V14.01,2013-03-10 09:04:00,
2013-03-10 05:09:00,43.3,5.0,29.99,SE,141,0.0,0.0,20,0.00,,CLR,0.00,VWS V14.01,2013-03-10 09:09:00,
2013-03-10 05:14:00,43.5,5.1,29.99,SE,141,0.0,0.0,20,0.00,,CLR,0.00,VWS V14.01,2013-03-10 09:14:00,
2013-03-10 05:19:00,43.3,5.0,29.99,SE,141,0.0,0.0,20,0.00,,CLR,0.00,VWS V14.01,2013-03-10 09:19:00,
2013-03-10 05:24:00,43.0,4.7,29.99,SE,141,0.0,0.0,20,0.00,,CLR,0.00,VWS V14.01,2013-03-10 09:24:00,
2013-03-10 05:30:00,42.8,4.5,29.96,SE,141,0.0,0.0,20,0.00,,CLR,0.00,VWS V14.01,2013-03-10 09:30:00,
2013-03-10 05:35:00,42.6,5.4,29.96,SE,141,0.0,0.0,21,0.00,,CLR,0.00,VWS V14.01,2013-03-10 09:35:00,
2013-03-10 05:40:00,42.4,5.3,29.96,SE,141,0.0,0.0,21,0.00,,CLR,0.00,VWS V14.01,2013-03-10 09:40:00,
2013-03-10 05:45:00,42.3,5.1,29.99,SE,141,0.0,0.0,21,0.00,,CLR,0.00,VWS V14.01,2013-03-10 09:45:00,
2013-03-10 05:50:00,42.1,5.0,29.99,SE,141,0.0,0.0,21,0.00,,CLR,0.00,VWS V14.01,2013-03-10 09:50:00,
2013-03-10 05:55:00,41.7,4.7,29.99,SE,141,0.0,0.0,21,0.00,,CLR,0.00,VWS V14.01,2013-03-10 09:55:00,
2013-03-10 06:00:00,41.5,4.5,29.99,SE,141,0.0,0.0,21,0.00,,CLR,0.00,VWS V14.01,2013-03-10 10:00:00,
2013-03-10 06:05:00,41.5,4.5,29.99,SE,141,0.0,0.0,21,0.00,,CLR,0.00,VWS V14.01,2013-03-10 10:05:00,
2013-03-10 06:10:00,41.5,4.5,29.99,SE,141,0.0,0.0,21,0.00,,CLR,0.00,VWS V14.01,2013-03-10 10:10:00,
2013-03-10 06:15:00,41.5,4.5,29.99,SE,141,0.0,0.0,21,0.00,,CLR,0.00,VWS V14.01,2013-03-10 10:15:00,
2013-03-10 06:20:00,41.9,4.8,29.99,SE,141,0.0,0.0,21,0.00,,CLR,0.00,VWS V14.01,2013-03-10 10:20:00,
2013-03-10 06:25:00,42.1,5.0,29.99,SE,141,0.0,0.0,21,0.00,,CLR,0.00,VWS V14.01,2013-03-10 10:25:00,
2013-03-10 06:31:00,42.1,5.0,29.99,SE,141,0.0,0.0,21,0.00,,CLR,0.00,VWS V14.01,2013-03-10 10:31:00,
2013-03-10 06:36:00,42.3,5.1,29.99,SE,141,0.0,0.0,21,0.00,,CLR,0.00,VWS V14.01,2013-03-10 10:36:00,
2013-03-10 06:41:00,42.4,5.3,29.99,SE,141,0.0,0.0,21,0.00,,CLR,0.00,VWS V14.01,2013-03-10 10:41:00,
2013-03-10 06:46:00,42.4,5.3,29.99,SE,141,0.0,0.0,21,0.00,,CLR,0.00,VWS V14.01,2013-03-10 10:46:00,
2013-03-10 06:51:00,42.4,5.3,29.99,SE,141,0.0,0.0,21,0.00,,CLR,0.00,VWS V14.01,2013-03-10 10:51:00,
2013-03-10 06:56:00,42.3,5.1,29.99,SE,141,0.0,0.0,21,0.00,,CLR,0.00,VWS V14.01,2013-03-10 10:56:00,
2013-03-10 07:01:00,42.3,5.1,29.99,SE,141,0.0,0.0,21,0.00,,CLR,0.00,VWS V14.01,2013-03-10 11:01:00,
2013-03-10 07:06:00,42.1,5.0,29.99,SE,141,0.0,0.0,21,0.00,,CLR,0.00,VWS V14.01,2013-03-10 11:06:00,
2013-03-10 07:11:00,41.9,4.8,29.99,SE,141,0.0,0.0,21,0.00,,CLR,0.00,VWS V14.01,2013-03-10 11:11:00,
2013-03-10 07:16:00,41.7,4.7,29.99,SE,141,0.0,0.0,21,0.00,,CLR,0.00,VWS V14.01,2013-03-10 11:16:00,
2013-03-10 07:21:00,41.5,4.5,29.99,SE,141,0.0,0.0,21,0.00,,CLR,0.00,VWS V14.01,2013-03-10 11:21:00,
2013-03-10 07:26:00,41.2,4.2,29.99,SE,141,0.0,0.0,21,0.00,,CLR,0.00,VWS V14.01,2013-03-10 11:26:00,
2013-03-10 07:31:00,41.2,4.2,29.99,SE,141,0.0,0.0,21,0.00,,CLR,0.00,VWS V14.01,2013-03-10 11:31:00,
2013-03-10 07:36:00,40.8,3.9,29.99,SE,141,0.0,0.0,21,0.00,,CLR,0.00,VWS V14.01,2013-03-10 11:36:00,
2013-03-10 07:41:00,40.8,3.9,29.99,SSE,167,0.0,0.0,21,0.00,,CLR,0.00,VWS V14.01,2013-03-10 11:41:00,
2013-03-10 07:46:00,40.8,3.9,30.02,SSE,167,0.0,0.0,21,0.00,,CLR,0.00,VWS V14.01,2013-03-10 11:46:00,
2013-03-10 07:51:00,41.0,4.1,30.02,SSE,167,0.0,0.0,21,0.00,,CLR,0.00,VWS V14.01,2013-03-10 11:51:00,
2013-03-10 07:56:00,41.2,4.2,30.02,SSE,167,0.0,0.0,21,0.00,,CLR,0.00,VWS V14.01,2013-03-10 11:56:00,
2013-03-10 08:02:00,41.5,4.5,30.02,SSE,167,0.0,0.0,21,0.00,,CLR,0.00,VWS V14.01,2013-03-10 12:02:00,
2013-03-10 08:07:00,41.7,4.7,30.02,SSE,167,0.0,0.0,21,0.00,,CLR,0.00,VWS V14.01,2013-03-10 12:07:00,
2013-03-10 08:12:00,41.9,4.8,30.02,SSE,167,0.0,0.0,21,0.00,,CLR,0.00,VWS V14.01,2013-03-10 12:12:00,
2013-03-10 08:17:00,42.3,5.1,30.02,SSE,167,0.0,0.0,21,0.00,,CLR,0.00,VWS V14.01,2013-03-10 12:17:00,
2013-03-10 08:22:00,42.4,5.3,30.02,SSE,167,0.0,0.0,21,0.00,,CLR,0.00,VWS V14.01,2013-03-10 12:22:00,
2013-03-10 08:27:00,42.8,4.5,30.02,SSE,167,0.0,0.0,20,0.00,,CLR,0.00,VWS V14.01,2013-03-10 12:27:00,
2013-03-10 08:32:00,43.0,4.7,30.02,SSE,167,0.0,0.0,20,0.00,,CLR,0.00,VWS V14.01,2013-03-10 12:32:00,
2013-03-10 08:37:00,43.2,4.8,30.02,SSE,167,0.0,0.0,20,0.00,,CLR,0.00,VWS V14.01,2013-03-10 12:37:00,
2013-03-10 08:42:00,43.3,5.0,30.02,SSE,167,0.0,0.0,20,0.00,,CLR,0.00,VWS V14.01,2013-03-10 12:42:00,
2013-03-10 08:47:00,43.5,5.1,30.02,SSE,167,0.0,0.0,20,0.00,,CLR,0.00,VWS V14.01,2013-03-10 12:47:00,
2013-03-10 08:52:00,43.9,5.4,30.02,SSE,167,0.0,0.0,20,0.00,,CLR,0.00,VWS V14.01,2013-03-10 12:52:00,
2013-03-10 08:58:00,44.1,5.6,30.02,SSE,167,0.0,0.0,20,0.00,,CLR,0.00,VWS V14.01,2013-03-10 12:58:00,
2013-03-10 09:03:00,44.2,5.7,30.02,SSE,156,2.7,3.1,20,0.00,,CLR,0.00,VWS V14.01,2013-03-10 13:03:00,
2013-03-10 09:08:00,44.6,6.0,30.02,WSW,247,0.0,2.7,20,0.00,,CLR,0.00,VWS V14.01,2013-03-10 13:08:00,
2013-03-10 09:13:00,44.8,6.2,30.02,SW,219,0.0,0.0,20,0.00,,CLR,0.00,VWS V14.01,2013-03-10 13:13:00,
2013-03-10 09:18:00,45.3,6.6,30.02,South,185,3.1,3.1,20,0.00,,CLR,0.00,VWS V14.01,2013-03-10 13:18:00,
2013-03-10 09:23:00,45.5,6.8,30.02,SSW,200,2.2,2.2,20,0.00,,CLR,0.00,VWS V14.01,2013-03-10 13:23:00,
2013-03-10 09:28:00,46.0,7.2,30.02,South,170,0.0,2.7,20,0.00,,CLR,0.00,VWS V14.01,2013-03-10 13:28:00,
2013-03-10 09:33:00,46.6,6.5,30.02,South,173,3.1,4.9,19,0.00,,CLR,0.00,VWS V14.01,2013-03-10 13:33:00,
2013-03-10 09:38:00,46.9,6.8,30.02,SSE,149,3.1,5.4,19,0.00,,CLR,0.00,VWS V14.01,2013-03-10 13:38:00,
2013-03-10 09:43:00,47.1,7.0,30.02,ESE,114,3.1,3.6,19,0.00,,CLR,0.00,VWS V14.01,2013-03-10 13:43:00,
2013-03-10 09:49:00,47.5,7.3,30.02,SE,126,0.0,0.0,19,0.00,,CLR,0.00,VWS V14.01,2013-03-10 13:49:00,
2013-03-10 09:54:00,48.4,8.0,30.02,SE,124,0.0,0.0,19,0.00,,CLR,0.00,VWS V14.01,2013-03-10 13:54:00,
2013-03-10 09:59:00,48.7,8.3,30.02,SSE,149,5.4,5.8,19,0.00,,CLR,0.00,VWS V14.01,2013-03-10 13:59:00,
2013-03-10 10:04:00,48.7,8.3,30.02,ESE,117,3.6,3.6,19,0.00,,FEW110,0.00,VWS V14.01,2013-03-10 14:04:00,
2013-03-10 10:09:00,48.7,8.3,30.02,South,173,2.7,4.9,19,0.00,,FEW110,0.00,VWS V14.01,2013-03-10 14:09:00,
2013-03-10 10:14:00,48.6,8.2,30.02,SE,125,0.0,0.0,19,0.00,,FEW110,0.00,VWS V14.01,2013-03-10 14:14:00,
2013-03-10 10:19:00,48.7,8.3,30.02,SSE,159,3.1,3.1,19,0.00,,FEW110,0.00,VWS V14.01,2013-03-10 14:19:00,
2013-03-10 10:24:00,49.1,8.6,30.02,SW,231,2.2,3.1,19,0.00,,FEW110,0.00,VWS V14.01,2013-03-10 14:24:00,
2013-03-10 10:29:00,50.0,9.4,30.02,South,180,2.7,2.7,19,0.00,,FEW110,0.00,VWS V14.01,2013-03-10 14:29:00,
2013-03-10 10:34:00,51.4,10.6,30.02,SE,141,2.7,3.6,19,0.00,,FEW110,0.00,VWS V14.01,2013-03-10 14:34:00,
2013-03-10 10:39:00,53.4,11.0,30.02,SE,143,3.1,4.0,18,0.00,,FEW110,0.00,VWS V14.01,2013-03-10 14:39:00,
2013-03-10 10:45:00,54.0,11.4,30.02,SE,142,2.7,4.0,18,0.00,,FEW110,0.00,VWS V14.01,2013-03-10 14:45:00,
2013-03-10 10:50:00,54.9,12.2,30.02,SW,232,3.1,3.1,18,0.00,,FEW110,0.00,VWS V14.01,2013-03-10 14:50:00,
2013-03-10 10:55:00,56.5,12.2,30.02,SSW,192,4.0,6.7,17,0.00,,FEW110,0.00,VWS V14.01,2013-03-10 14:55:00,
2013-03-10 11:00:00,57.4,12.9,30.02,ESE,116,3.1,3.1,17,0.00,,FEW110,0.00,VWS V14.01,2013-03-10 15:00:00,
2013-03-10 11:05:00,57.2,12.8,30.02,SE,126,2.7,3.1,17,0.00,,CLR,0.00,VWS V14.01,2013-03-10 15:05:00,
2013-03-10 11:10:00,56.7,12.4,30.02,NE,51,3.6,4.0,17,0.00,,CLR,0.00,VWS V14.01,2013-03-10 15:10:00,
2013-03-10 11:15:00,57.0,12.7,30.02,SSE,158,3.6,3.6,17,0.00,,CLR,0.00,VWS V14.01,2013-03-10 15:15:00,
2013-03-10 11:20:00,57.9,13.4,30.02,ESE,118,2.7,3.6,17,0.00,,CLR,0.00,VWS V14.01,2013-03-10 15:20:00,
2013-03-10 11:25:00,58.8,16.7,30.02,SSE,147,4.0,6.3,19,0.00,,CLR,0.00,VWS V14.01,2013-03-10 15:25:00,
2013-03-10 11:31:00,59.4,17.1,30.02,South,185,3.6,3.6,19,0.00,,CLR,0.00,VWS V14.01,2013-03-10 15:31:00,
2013-03-10 11:36:00,60.1,17.7,30.02,SSE,154,3.6,3.6,19,0.00,,CLR,0.00,VWS V14.01,2013-03-10 15:36:00,
2013-03-10 11:41:00,60.3,17.9,30.02,South,173,3.1,8.1,19,0.00,,CLR,0.00,VWS V14.01,2013-03-10 15:41:00,
2013-03-10 11:46:00,60.1,17.7,30.02,SW,233,0.0,3.1,19,0.00,,CLR,0.00,VWS V14.01,2013-03-10 15:46:00,
2013-03-10 11:51:00,61.2,18.6,30.02,SW,214,3.1,4.0,19,0.00,,CLR,0.00,VWS V14.01,2013-03-10 15:51:00,
2013-03-10 11:56:00,62.2,19.5,30.02,SSE,163,3.1,3.6,19,0.00,,CLR,0.00,VWS V14.01,2013-03-10 15:56:00,
2013-03-10 12:01:00,62.2,19.5,30.02,NE,51,2.7,3.6,19,0.00,,CLR,0.00,VWS V14.01,2013-03-10 16:01:00,
2013-03-10 12:06:00,62.6,18.5,30.02,East,100,2.7,2.7,18,0.00,,CLR,0.00,VWS V14.01,2013-03-10 16:06:00,
2013-03-10 12:11:00,63.9,19.6,30.02,South,178,3.1,3.1,18,0.00,,CLR,0.00,VWS V14.01,2013-03-10 16:11:00,
2013-03-10 12:16:00,64.2,19.9,30.02,SE,135,5.4,5.4,18,0.00,,CLR,0.00,VWS V14.01,2013-03-10 16:16:00,
2013-03-10 12:21:00,64.0,19.7,30.02,South,171,5.4,5.4,18,0.00,,CLR,0.00,VWS V14.01,2013-03-10 16:21:00,
2013-03-10 12:26:00,63.5,19.3,30.02,SW,233,3.1,3.1,18,0.00,,CLR,0.00,VWS V14.01,2013-03-10 16:26:00,
2013-03-10 12:31:00,64.4,20.0,30.02,SE,138,4.0,4.0,18,0.00,,CLR,0.00,VWS V14.01,2013-03-10 16:31:00,
2013-03-10 12:36:00,65.8,21.2,30.02,SE,139,3.6,5.8,18,0.00,,CLR,0.00,VWS V14.01,2013-03-10 16:36:00,
2013-03-10 12:42:00,66.0,21.3,30.02,SW,229,2.7,3.6,18,0.00,,CLR,0.00,VWS V14.01,2013-03-10 16:42:00,
2013-03-10 12:47:00,66.0,21.3,30.02,SSE,166,3.6,4.0,18,0.00,,CLR,0.00,VWS V14.01,2013-03-10 16:47:00,
2013-03-10 12:52:00,66.0,21.3,30.02,SW,219,2.7,5.8,18,0.00,,CLR,0.00,VWS V14.01,2013-03-10 16:52:00,
2013-03-10 12:57:00,66.6,20.4,30.02,WSW,251,5.8,5.8,17,0.00,,CLR,0.00,VWS V14.01,2013-03-10 16:57:00,
2013-03-10 13:02:00,66.7,20.6,29.99,SSE,166,5.4,5.4,17,0.00,,CLR,0.00,VWS V14.01,2013-03-10 17:02:00,
2013-03-10 13:07:00,67.1,20.9,29.99,ESE,117,2.7,3.6,17,0.00,,CLR,0.00,VWS V14.01,2013-03-10 17:07:00,
2013-03-10 13:12:00,67.6,21.3,29.99,East,79,2.2,2.2,17,0.00,,CLR,0.00,VWS V14.01,2013-03-10 17:12:00,
2013-03-10 13:17:00,67.3,21.0,29.99,SSW,197,3.1,3.1,17,0.00,,CLR,0.00,VWS V14.01,2013-03-10 17:17:00,
2013-03-10 13:22:00,67.1,20.9,29.99,SSE,164,0.0,5.4,17,0.00,,CLR,0.00,VWS V14.01,2013-03-10 17:22:00,
2013-03-10 13:27:00,67.5,21.2,29.99,WSW,254,3.1,3.1,17,0.00,,CLR,0.00,VWS V14.01,2013-03-10 17:27:00,
2013-03-10 13:32:00,66.6,20.4,29.99,ESE,111,3.1,3.6,17,0.00,,CLR,0.00,VWS V14.01,2013-03-10 17:32:00,
2013-03-10 13:37:00,66.9,20.7,29.99,WSW,256,4.0,4.0,17,0.00,,CLR,0.00,VWS V14.01,2013-03-10 17:37:00,
2013-03-10 13:43:00,68.0,21.6,29.99,South,185,4.9,4.9,17,0.00,,CLR,0.00,VWS V14.01,2013-03-10 17:43:00,
2013-03-10 13:48:00,69.3,22.6,29.99,SSE,156,3.1,5.8,17,0.00,,CLR,0.00,VWS V14.01,2013-03-10 17:48:00,
2013-03-10 13:53:00,66.9,20.7,29.99,WSW,237,4.0,4.5,17,0.00,,CLR,0.00,VWS V14.01,2013-03-10 17:53:00,
2013-03-10 13:58:00,67.5,21.2,29.99,SSE,155,4.0,6.3,17,0.00,,CLR,0.00,VWS V14.01,2013-03-10 17:58:00,
2013-03-10 14:03:00,70.5,23.6,29.99,ESE,121,3.6,3.6,17,0.00,,CLR,0.00,VWS V14.01,2013-03-10 18:03:00,
2013-03-10 14:08:00,70.7,23.8,29.99,SSE,166,5.4,5.4,17,0.00,,CLR,0.00,VWS V14.01,2013-03-10 18:08:00,
2013-03-10 14:13:00,70.9,23.9,29.99,SSE,159,3.1,4.9,17,0.00,,CLR,0.00,VWS V14.01,2013-03-10 18:13:00,
2013-03-10 14:18:00,71.2,24.2,29.99,South,172,2.2,6.3,17,0.00,,CLR,0.00,VWS V14.01,2013-03-10 18:18:00,
2013-03-10 14:23:00,72.1,23.5,29.99,SSW,207,2.2,3.1,16,0.00,,CLR,0.00,VWS V14.01,2013-03-10 18:23:00,
2013-03-10 14:29:00,73.8,24.8,29.96,SSE,160,4.9,4.9,16,0.00,,CLR,0.00,VWS V14.01,2013-03-10 18:29:00,
2013-03-10 14:34:00,74.8,25.7,29.96,South,170,2.7,4.9,16,0.00,,CLR,0.00,VWS V14.01,2013-03-10 18:34:00,
2013-03-10 14:39:00,74.8,25.7,29.96,SSE,153,4.0,4.0,16,0.00,,CLR,0.00,VWS V14.01,2013-03-10 18:39:00,
2013-03-10 14:44:00,74.5,25.4,29.99,SSW,212,4.0,4.0,16,0.00,,CLR,0.00,VWS V14.01,2013-03-10 18:44:00,
2013-03-10 14:49:00,74.5,25.4,29.99,ESE,116,4.9,4.9,16,0.00,,CLR,0.00,VWS V14.01,2013-03-10 18:49:00,
2013-03-10 14:54:00,73.0,24.2,29.99,SE,143,2.7,3.1,16,0.00,,CLR,0.00,VWS V14.01,2013-03-10 18:54:00,
2013-03-10 14:59:00,72.9,24.1,29.96,ESE,115,4.9,4.9,16,0.00,,CLR,0.00,VWS V14.01,2013-03-10 18:59:00,
2013-03-10 15:04:00,72.3,23.6,29.96,SSE,157,3.1,4.0,16,0.00,,CLR,0.00,VWS V14.01,2013-03-10 19:04:00,
2013-03-10 15:09:00,70.2,23.4,29.96,SSE,165,2.7,3.1,17,0.00,,CLR,0.00,VWS V14.01,2013-03-10 19:09:00,
2013-03-10 15:15:00,67.1,20.9,29.96,East,79,0.0,3.6,17,0.00,,CLR,0.00,VWS V14.01,2013-03-10 19:15:00,
2013-03-10 15:20:00,64.9,20.4,29.96,East,89,2.7,8.3,18,0.00,,CLR,0.00,VWS V14.01,2013-03-10 19:20:00,
2013-03-10 15:25:00,63.0,18.8,29.96,SE,130,2.2,5.4,18,0.00,,CLR,0.00,VWS V14.01,2013-03-10 19:25:00,
2013-03-10 15:30:00,63.0,18.8,29.96,SE,138,3.6,5.4,18,0.00,,CLR,0.00,VWS V14.01,2013-03-10 19:30:00,
2013-03-10 15:35:00,67.6,21.3,29.96,SE,133,4.0,5.4,17,0.00,,CLR,0.00,VWS V14.01,2013-03-10 19:35:00,
2013-03-10 15:40:00,70.5,23.6,29.96,South,185,3.1,3.1,17,0.00,,CLR,0.00,VWS V14.01,2013-03-10 19:40:00,
2013-03-10 15:45:00,69.1,22.5,29.96,West,281,3.1,4.0,17,0.00,,CLR,0.00,VWS V14.01,2013-03-10 19:45:00,
2013-03-10 15:50:00,66.9,20.7,29.96,SW,225,3.6,3.6,17,0.00,,CLR,0.00,VWS V14.01,2013-03-10 19:50:00,
2013-03-10 15:55:00,66.0,21.3,29.96,SSE,167,2.2,4.0,18,0.00,,CLR,0.00,VWS V14.01,2013-03-10 19:55:00,
2013-03-10 16:00:00,66.9,20.7,29.96,SE,143,3.6,3.6,17,0.00,,CLR,0.00,VWS V14.01,2013-03-10 20:00:00,
2013-03-10 16:05:00,67.5,21.2,29.96,SSE,150,4.9,4.9,17,0.00,,CLR,0.00,VWS V14.01,2013-03-10 20:05:00,
2013-03-10 16:11:00,66.9,20.7,29.96,South,186,3.1,7.6,17,0.00,,CLR,0.00,VWS V14.01,2013-03-10 20:11:00,
2013-03-10 16:16:00,65.7,21.0,29.96,SE,144,0.0,3.6,18,0.00,,CLR,0.00,VWS V14.01,2013-03-10 20:16:00,
2013-03-10 16:21:00,65.3,20.7,29.96,SSW,207,2.7,2.7,18,0.00,,CLR,0.00,VWS V14.01,2013-03-10 20:21:00,
2013-03-10 16:26:00,65.7,21.0,29.96,SE,131,4.0,4.0,18,0.00,,CLR,0.00,VWS V14.01,2013-03-10 20:26:00,
2013-03-10 16:31:00,65.1,20.6,29.96,ESE,117,3.1,4.0,18,0.00,,CLR,0.00,VWS V14.01,2013-03-10 20:31:00,
2013-03-10 16:36:00,65.1,20.6,29.96,SE,127,2.7,3.6,18,0.00,,CLR,0.00,VWS V14.01,2013-03-10 20:36:00,
2013-03-10 16:41:00,64.6,20.1,29.96,SSE,164,2.7,5.4,18,0.00,,CLR,0.00,VWS V14.01,2013-03-10 20:41:00,
2013-03-10 16:46:00,62.8,18.7,29.96,East,98,2.7,3.1,18,0.00,,CLR,0.00,VWS V14.01,2013-03-10 20:46:00,
2013-03-10 16:52:00,62.2,19.5,29.96,SSE,165,2.2,3.6,19,0.00,,CLR,0.00,VWS V14.01,2013-03-10 20:52:00,
2013-03-10 16:56:00,61.7,19.0,29.96,SW,223,3.6,4.9,19,0.00,,CLR,0.00,VWS V14.01,2013-03-10 20:56:00,
2013-03-10 17:01:00,61.7,19.0,29.96,WSW,242,4.0,4.5,19,0.00,,CLR,0.00,VWS V14.01,2013-03-10 21:01:00,
2013-03-10 17:07:00,61.7,19.0,29.96,East,80,2.2,5.4,19,0.00,,CLR,0.00,VWS V14.01,2013-03-10 21:07:00,
2013-03-10 17:12:00,63.1,19.0,29.96,SW,214,2.7,5.4,18,0.00,,CLR,0.00,VWS V14.01,2013-03-10 21:12:00,
2013-03-10 17:17:00,64.8,20.3,29.96,South,190,2.7,3.6,18,0.00,,CLR,0.00,VWS V14.01,2013-03-10 21:17:00,
2013-03-10 17:22:00,65.5,20.9,29.96,SW,214,5.8,8.7,18,0.00,,CLR,0.00,VWS V14.01,2013-03-10 21:22:00,
2013-03-10 17:27:00,66.2,20.1,29.96,SSE,167,5.4,5.8,17,0.00,,CLR,0.00,VWS V14.01,2013-03-10 21:27:00,
2013-03-10 17:32:00,68.2,21.7,29.96,SSE,164,3.6,3.6,17,0.00,,CLR,0.00,VWS V14.01,2013-03-10 21:32:00,
2013-03-10 17:37:00,69.1,22.5,29.96,South,187,5.4,5.4,17,0.00,,CLR,0.00,VWS V14.01,2013-03-10 21:37:00,
2013-03-10 17:42:00,68.7,22.2,29.96,SSW,213,2.7,4.9,17,0.00,,CLR,0.00,VWS V14.01,2013-03-10 21:42:00,
2013-03-10 17:47:00,67.1,20.9,29.96,SSE,162,5.4,5.4,17,0.00,,CLR,0.00,VWS V14.01,2013-03-10 21:47:00,
2013-03-10 17:52:00,63.5,19.3,29.96,WSW,246,3.1,5.8,18,0.00,,CLR,0.00,VWS V14.01,2013-03-10 21:52:00,
2013-03-10 17:58:00,60.6,18.2,29.96,WSW,246,2.7,3.1,19,0.00,,CLR,0.00,VWS V14.01,2013-03-10 21:58:00,
2013-03-10 18:03:00,59.2,17.0,29.96,SSE,157,4.0,5.4,19,0.00,,CLR,0.00,VWS V14.01,2013-03-10 22:03:00,
2013-03-10 18:08:00,57.9,15.9,29.96,WSW,257,2.7,2.7,19,0.00,,CLR,0.00,VWS V14.01,2013-03-10 22:08:00,
2013-03-10 18:13:00,57.4,15.5,29.96,SE,127,3.1,3.1,19,0.00,,CLR,0.00,VWS V14.01,2013-03-10 22:13:00,
2013-03-10 18:18:00,56.8,16.2,29.96,WSW,244,3.1,3.1,20,0.00,,CLR,0.00,VWS V14.01,2013-03-10 22:18:00,
2013-03-10 18:23:00,56.5,12.2,29.96,East,95,3.1,3.1,17,0.00,,CLR,0.00,VWS V14.01,2013-03-10 22:23:00,
2013-03-10 18:28:00,55.8,11.6,29.96,South,172,3.6,5.4,17,0.00,,CLR,0.00,VWS V14.01,2013-03-10 22:28:00,
2013-03-10 18:34:00,54.9,12.2,29.96,SSE,167,3.6,3.6,18,0.00,,CLR,0.00,VWS V14.01,2013-03-10 22:34:00,
2013-03-10 18:39:00,54.1,11.6,29.96,South,182,3.6,3.6,18,0.00,,CLR,0.00,VWS V14.01,2013-03-10 22:39:00,
2013-03-10 18:44:00,53.4,11.0,29.96,SSW,212,0.0,2.7,18,0.00,,CLR,0.00,VWS V14.01,2013-03-10 22:44:00,
2013-03-10 18:49:00,53.1,10.7,29.96,WSW,237,2.7,3.6,18,0.00,,CLR,0.00,VWS V14.01,2013-03-10 22:49:00,
2013-03-10 18:54:00,52.5,10.2,29.96,SSW,205,3.1,4.0,18,0.00,,CLR,0.00,VWS V14.01,2013-03-10 22:54:00,
2013-03-10 18:59:00,52.2,10.0,29.96,SSW,211,7.6,7.6,18,0.00,,CLR,0.00,VWS V14.01,2013-03-10 22:59:00,
2013-03-10 19:04:00,51.8,9.7,29.96,SSW,207,2.2,4.9,18,0.00,,CLR,0.00,VWS V14.01,2013-03-10 23:04:00,
2013-03-10 19:09:00,51.4,10.6,29.96,South,186,0.0,0.0,19,0.00,,CLR,0.00,VWS V14.01,2013-03-10 23:09:00,
2013-03-10 19:14:00,50.7,10.0,29.96,SW,233,2.2,3.1,19,0.00,,CLR,0.00,VWS V14.01,2013-03-10 23:14:00,
2013-03-10 19:19:00,50.4,9.7,29.96,WSW,241,0.0,3.1,19,0.00,,CLR,0.00,VWS V14.01,2013-03-10 23:19:00,
2013-03-10 19:25:00,50.2,9.5,29.96,SSW,202,2.2,4.0,19,0.00,,CLR,0.00,VWS V14.01,2013-03-10 23:25:00,
2013-03-10 19:30:00,50.0,9.4,29.96,SSW,210,0.0,2.7,19,0.00,,CLR,0.00,VWS V14.01,2013-03-10 23:30:00,
2013-03-10 19:35:00,49.6,9.1,29.96,South,169,0.0,5.8,19,0.00,,CLR,0.00,VWS V14.01,2013-03-10 23:35:00,
2013-03-10 19:40:00,49.3,8.8,29.96,South,178,0.0,0.0,19,0.00,,CLR,0.00,VWS V14.01,2013-03-10 23:40:00,
2013-03-10 19:45:00,49.1,8.6,29.96,SE,131,0.0,2.2,19,0.00,,CLR,0.00,VWS V14.01,2013-03-10 23:45:00,
2013-03-10 19:50:00,48.9,8.5,29.96,SSE,147,0.0,0.0,19,0.00,,CLR,0.00,VWS V14.01,2013-03-10 23:50:00,
2013-03-10 19:55:00,48.9,8.5,29.96,South,172,0.0,0.0,19,0.00,,CLR,0.00,VWS V14.01,2013-03-10 23:55:00,
2013-03-10 20:00:00,48.7,8.3,29.96,South,172,0.0,0.0,19,0.00,,CLR,0.00,VWS V14.01,2013-03-11 00:00:00,
2013-03-10 20:05:00,48.6,8.2,29.96,South,173,0.0,0.0,19,0.00,,CLR,0.00,VWS V14.01,2013-03-11 00:05:00,
2013-03-10 20:10:00,48.2,7.9,29.96,SSW,208,0.0,0.0,19,0.00,,CLR,0.00,VWS V14.01,2013-03-11 00:10:00,
2013-03-10 20:15:00,48.0,7.7,29.96,ESE,117,0.0,0.0,19,0.00,,CLR,0.00,VWS V14.01,2013-03-11 00:15:00,
2013-03-10 20:21:00,47.7,7.4,29.96,South,169,0.0,0.0,19,0.00,,CLR,0.00,VWS V14.01,2013-03-11 00:21:00,
2013-03-10 20:26:00,47.8,7.6,29.96,SE,126,0.0,0.0,19,0.00,,CLR,0.00,VWS V14.01,2013-03-11 00:26:00,
2013-03-10 20:31:00,48.0,7.7,29.93,SW,236,0.0,0.0,19,0.00,,CLR,0.00,VWS V14.01,2013-03-11 00:31:00,
2013-03-10 20:36:00,48.4,8.0,29.93,SW,236,0.0,0.0,19,0.00,,CLR,0.00,VWS V14.01,2013-03-11 00:36:00,
2013-03-10 20:42:00,48.2,7.9,29.93,SW,221,0.0,0.0,19,0.00,,CLR,0.00,VWS V14.01,2013-03-11 00:42:00,
2013-03-10 20:47:00,48.2,7.9,29.96,SSE,153,2.2,3.1,19,0.00,,CLR,0.00,VWS V14.01,2013-03-11 00:47:00,
2013-03-10 20:52:00,48.2,7.9,29.96,SSE,162,3.6,3.6,19,0.00,,CLR,0.00,VWS V14.01,2013-03-11 00:52:00,
2013-03-10 20:57:00,48.2,7.9,29.96,South,175,0.0,0.0,19,0.00,,CLR,0.00,VWS V14.01,2013-03-11 00:57:00,
2013-03-10 21:02:00,48.2,7.9,29.96,WSW,245,0.0,0.0,19,0.00,,CLR,0.00,VWS V14.01,2013-03-11 01:02:00,
2013-03-10 21:07:00,48.2,7.9,29.96,WSW,246,0.0,0.0,19,0.00,,CLR,0.00,VWS V14.01,2013-03-11 01:07:00,
2013-03-10 21:12:00,47.8,7.6,29.96,SSW,213,2.7,2.7,19,0.00,,CLR,0.00,VWS V14.01,2013-03-11 01:12:00,
2013-03-10 21:17:00,47.7,7.4,29.96,WSW,249,0.0,0.0,19,0.00,,CLR,0.00,VWS V14.01,2013-03-11 01:17:00,
2013-03-10 21:22:00,47.3,7.1,29.96,WSW,248,0.0,0.0,19,0.00,,CLR,0.00,VWS V14.01,2013-03-11 01:22:00,
2013-03-10 21:27:00,47.3,7.1,29.96,West,259,0.0,0.0,19,0.00,,CLR,0.00,VWS V14.01,2013-03-11 01:27:00,
2013-03-10 21:32:00,47.1,7.0,29.96,SW,223,0.0,2.7,19,0.00,,CLR,0.00,VWS V14.01,2013-03-11 01:32:00,
2013-03-10 21:37:00,46.8,6.7,29.96,SW,223,0.0,0.0,19,0.00,,CLR,0.00,VWS V14.01,2013-03-11 01:37:00,
2013-03-10 21:42:00,46.8,6.7,29.96,SW,223,0.0,0.0,19,0.00,,CLR,0.00,VWS V14.01,2013-03-11 01:42:00,
2013-03-10 21:48:00,46.6,6.5,29.96,SW,223,0.0,0.0,19,0.00,,CLR,0.00,VWS V14.01,2013-03-11 01:48:00,
2013-03-10 21:53:00,46.4,6.4,29.96,WSW,238,0.0,0.0,19,0.00,,CLR,0.00,VWS V14.01,2013-03-11 01:53:00,
2013-03-10 21:58:00,46.4,6.4,29.96,SSW,213,0.0,2.7,19,0.00,,CLR,0.00,VWS V14.01,2013-03-11 01:58:00,
2013-03-10 22:03:00,46.0,7.2,29.96,South,190,2.2,2.7,20,0.00,,CLR,0.00,VWS V14.01,2013-03-11 02:03:00,
2013-03-10 22:08:00,46.0,7.2,29.96,NW,311,0.0,0.0,20,0.00,,CLR,0.00,VWS V14.01,2013-03-11 02:08:00,
2013-03-10 22:13:00,46.0,7.2,29.96,SW,229,4.9,5.4,20,0.00,,CLR,0.00,VWS V14.01,2013-03-11 02:13:00,
2013-03-10 22:18:00,45.9,7.1,29.96,SSW,205,0.0,0.0,20,0.00,,CLR,0.00,VWS V14.01,2013-03-11 02:18:00,
2013-03-10 22:23:00,45.5,6.8,29.96,SSW,205,0.0,0.0,20,0.00,,CLR,0.00,VWS V14.01,2013-03-11 02:23:00,
2013-03-10 22:28:00,45.3,6.6,29.96,SSW,205,0.0,0.0,20,0.00,,CLR,0.00,VWS V14.01,2013-03-11 02:28:00,
2013-03-10 22:34:00,45.1,6.5,29.96,SSW,205,0.0,0.0,20,0.00,,CLR,0.00,VWS V14.01,2013-03-11 02:34:00,
2013-03-10 22:39:00,45.1,6.5,29.96,NNE,16,0.0,0.0,20,0.00,,CLR,0.00,VWS V14.01,2013-03-11 02:39:00,
2013-03-10 22:44:00,45.1,6.5,29.96,North,353,3.6,3.6,20,0.00,,CLR,0.00,VWS V14.01,2013-03-11 02:44:00,
2013-03-10 22:49:00,45.1,6.5,29.96,NNE,14,3.1,3.1,20,0.00,,CLR,0.00,VWS V14.01,2013-03-11 02:49:00,
2013-03-10 22:54:00,45.1,6.5,29.96,NW,313,2.2,2.2,20,0.00,,CLR,0.00,VWS V14.01,2013-03-11 02:54:00,
2013-03-10 22:59:00,45.1,6.5,29.96,SSW,212,3.1,3.1,20,0.00,,CLR,0.00,VWS V14.01,2013-03-11 02:59:00,
2013-03-10 23:04:00,45.3,6.6,29.96,SW,231,0.0,0.0,20,0.00,,CLR,0.00,VWS V14.01,2013-03-11 03:04:00,
2013-03-10 23:09:00,45.1,6.5,29.96,SSW,194,0.0,0.0,20,0.00,,CLR,0.00,VWS V14.01,2013-03-11 03:09:00,
2013-03-10 23:14:00,44.8,6.2,29.96,SSW,194,0.0,0.0,20,0.00,,CLR,0.00,VWS V14.01,2013-03-11 03:14:00,
2013-03-10 23:19:00,44.6,6.0,29.96,SSW,194,0.0,0.0,20,0.00,,CLR,0.00,VWS V14.01,2013-03-11 03:19:00,
2013-03-10 23:24:00,45.1,6.5,29.96,SSW,194,0.0,0.0,20,0.00,,CLR,0.00,VWS V14.01,2013-03-11 03:24:00,
2013-03-10 23:29:00,45.5,6.8,29.96,SSW,194,0.0,0.0,20,0.00,,CLR,0.00,VWS V14.01,2013-03-11 03:29:00,
2013-03-10 23:35:00,45.7,6.9,29.96,SSW,194,0.0,0.0,20,0.00,,CLR,0.00,VWS V14.01,2013-03-11 03:35:00,
2013-03-10 23:40:00,45.7,6.9,29.96,SSW,194,0.0,0.0,20,0.00,,CLR,0.00,VWS V14.01,2013-03-11 03:40:00,
2013-03-10 23:45:00,45.5,6.8,29.96,SSW,194,0.0,0.0,20,0.00,,CLR,0.00,VWS V14.01,2013-03-11 03:45:00,
2013-03-10 23:50:00,45.5,6.8,29.96,SW,224,0.0,0.0,20,0.00,,CLR,0.00,VWS V14.01,2013-03-11 03:50:00,
2013-03-10 23:55:00,45.1,6.5,29.96,SW,224,0.0,0.0,20,0.00,,CLR,0.00,VWS V14.01,2013-03-11 03:55:00,